Location: Asheville, NC
(35.6000°N, 82.5500°W)
Time: 17:37:43
(UTC-04:00)

UWE-3 - Pass Details

Date: 06 January 2018
Orbit: 584 x 685 km, 97.6° (Epoch: 16 July)

Event Time Altitude Azimuth Distance (km) Brightness Sun altitude
Rises 18:46:26 0° 142° (SE) 2,814 ? -14.8°
Reaches altitude 10° 18:48:47 10° 131° (SE) 1,928 ? -15.2°
Enters shadow 18:51:33 26° 92° (E) 1,184 ? -15.8°
Exits shadow 18:53:32 25° 43° (NE) 1,246 ? -16.2°
Drops below altitude 10° 18:56:04 10° 12° (NNE) 1,984 ? -16.7°
Sets 18:58:31 0° 1° (N) 2,913 ? -17.1°
